Total_Precipitation_Accumulation
0.37 0.38 0.42 0.44 0.46 0.48 0.51 0.47 0.44 0.39 0.38 0.39 0.43 0.46 0.45 0.51 0.69 0.87 0.84 0.76 0.81 0.90 0.99 1.09 1.14 1.18 1.17 1.04 0.98 0.96 0.96 1.05 0.99 0.83 0.78 0.80 0.69 0.53 0.46 0.44 0.41 0.40 0.36
0.26 0.29 0.32 0.38 0.40 0.44 0.48 0.49 0.43 0.38 0.33 0.31 0.33 0.38 0.39 0.47 0.63 0.93 1.08 1.09 1.07 0.99 1.05 1.23 1.32 1.27 1.16 1.07 1.05 1.00 0.98 1.07 1.02 0.93 0.90 0.85 0.77 0.67 0.58 0.51 0.43 0.40 0.38
0.20 0.23 0.29 0.32 0.35 0.42 0.46 0.44 0.39 0.38 0.37 0.35 0.37 0.39 0.43 0.45 0.50 0.70 0.92 1.02 1.04 1.01 1.06 1.12 1.14 1.20 1.16 1.08 1.02 0.98 0.97 1.07 1.07 0.98 1.03 1.03 0.92 0.80 0.69 0.58 0.49 0.47 0.40
0.20 0.26 0.30 0.32 0.35 0.38 0.41 0.45 0.43 0.45 0.45 0.44 0.44 0.46 0.46 0.43 0.42 0.54 0.70 0.80 0.85 0.89 0.93 0.97 0.99 1.03 1.08 1.14 1.07 1.02 1.04 1.06 1.07 1.06 1.08 1.21 1.12 0.96 0.79 0.66 0.57 0.52 0.47
0.22 0.27 0.28 0.30 0.33 0.34 0.37 0.43 0.47 0.50 0.51 0.54 0.57 0.54 0.50 0.44 0.42 0.55 0.62 0.57 0.63 0.68 0.69 0.70 0.80 0.98 1.07 1.13 1.05 1.03 1.09 1.08 1.07 1.12 1.14 1.26 1.29 1.13 0.90 0.70 0.61 0.58 0.54
0.35 0.38 0.34 0.36 0.38 0.37 0.39 0.42 0.48 0.51 0.56 0.62 0.66 0.67 0.62 0.48 0.48 0.52 0.50 0.46 0.51 0.58 0.60 0.58 0.58 0.71 0.86 0.96 0.95 0.93 0.99 1.04 1.08 1.10 1.17 1.24 1.30 1.22 1.05 0.89 0.74 0.63 0.58
0.42 0.51 0.52 0.51 0.52 0.51 0.53 0.56 0.59 0.67 0.69 0.71 0.70 0.71 0.69 0.64 0.56 0.48 0.42 0.41 0.47 0.53 0.55 0.53 0.45 0.45 0.61 0.71 0.80 0.83 0.81 0.80 0.88 1.04 1.15 1.17 1.29 1.34 1.27 1.07 0.96 0.83 0.66
0.61 0.70 0.78 0.79 0.80 0.82 0.88 0.85 0.85 0.88 0.88 0.86 0.84 0.84 0.87 0.82 0.72 0.59 0.51 0.45 0.46 0.48 0.50 0.51 0.53 0.53 0.53 0.58 0.68 0.76 0.78 0.74 0.73 0.80 0.94 1.12 1.29 1.45 1.44 1.31 1.21 1.06 0.86
0.80 0.87 0.94 0.98 1.02 1.05 1.04 1.05 1.09 1.15 1.14 1.10 1.06 1.07 1.10 1.15 1.07 0.87 0.75 0.62 0.57 0.56 0.59 0.60 0.59 0.55 0.52 0.47 0.53 0.58 0.63 0.72 0.70 0.71 0.80 1.00 1.19 1.34 1.49 1.43 1.30 1.12 0.92
0.75 0.82 0.96 1.10 1.19 1.15 1.14 1.21 1.30 1.37 1.33 1.30 1.29 1.31 1.31 1.33 1.22 0.94 0.81 0.72 0.74 0.74 0.78 0.73 0.59 0.49 0.42 0.37 0.42 0.50 0.52 0.55 0.65 0.70 0.73 0.84 0.99 1.12 1.27 1.27 1.14 1.08 0.91
0.86 0.91 1.00 1.12 1.23 1.22 1.25 1.29 1.35 1.39 1.37 1.35 1.30 1.26 1.25 1.25 1.15 0.90 0.82 0.77 0.81 0.86 0.80 0.75 0.69 0.53 0.40 0.35 0.36 0.43 0.45 0.53 0.62 0.68 0.79 0.92 1.07 1.19 1.19 1.16 1.11 0.99 0.89
1.04 1.13 1.19 1.25 1.21 1.17 1.27 1.34 1.39 1.45 1.42 1.37 1.37 1.29 1.23 1.21 1.09 0.91 0.77 0.72 0.80 0.90 0.89 0.84 0.79 0.63 0.45 0.41 0.36 0.35 0.36 0.39 0.54 0.61 0.68 0.81 0.96 1.12 1.21 1.27 1.25 1.11 0.93
1.05 1.11 1.20 1.24 1.26 1.24 1.28 1.32 1.45 1.52 1.51 1.45 1.44 1.45 1.36 1.27 1.22 1.00 0.81 0.70 0.76 0.87 1.00 1.02 0.89 0.74 0.61 0.52 0.50 0.47 0.42 0.40 0.52 0.63 0.64 0.68 0.77 0.92 1.20 1.43 1.53 1.45 1.18
0.84 0.86 0.89 0.98 1.06 1.17 1.28 1.28 1.33 1.40 1.47 1.52 1.51 1.44 1.39 1.37 1.39 1.22 1.01 0.85 0.86 0.96 1.07 1.11 0.99 0.91 0.77 0.64 0.59 0.54 0.47 0.45 0.51 0.60 0.64 0.71 0.82 0.96 1.14 1.34 1.54 1.57 1.41
0.74 0.74 0.79 0.87 0.96 1.12 1.28 1.34 1.25 1.27 1.34 1.34 1.27 1.23 1.23 1.23 1.27 1.19 1.03 0.96 0.96 1.03 1.12 1.22 1.16 1.07 1.00 0.89 0.81 0.75 0.70 0.64 0.59 0.61 0.74 0.81 0.89 0.93 1.02 1.16 1.37 1.48 1.35
0.72 0.70 0.74 0.79 0.89 1.00 1.13 1.18 1.05 0.90 0.89 0.87 0.79 0.72 0.69 0.71 0.80 0.82 0.76 0.71 0.75 0.86 1.00 1.17 1.15 1.08 1.05 1.03 0.99 0.94 0.89 0.83 0.78 0.78 0.83 0.90 0.93 0.96 1.02 1.12 1.23 1.33 1.28
0.73 0.68 0.69 0.72 0.78 0.84 0.91 1.02 1.04 0.89 0.69 0.60 0.49 0.39 0.36 0.39 0.52 0.61 0.66 0.64 0.65 0.69 0.81 0.99 1.01 1.01 1.03 1.07 1.05 0.97 0.90 0.91 0.94 0.92 0.88 0.93 0.98 1.00 1.04 1.11 1.16 1.24 1.27
0.83 0.73 0.64 0.64 0.70 0.75 0.81 0.88 0.97 1.02 0.93 0.73 0.50 0.31 0.27 0.30 0.40 0.54 0.66 0.65 0.68 0.67 0.73 0.86 0.92 0.95 0.99 1.05 1.04 1.03 1.00 1.02 1.05 1.01 0.98 0.99 1.06 1.09 1.07 1.08 1.15 1.18 1.23
0.74 0.78 0.69 0.64 0.67 0.73 0.77 0.81 0.89 0.95 1.02 0.98 0.75 0.46 0.30 0.32 0.41 0.57 0.67 0.67 0.76 0.78 0.80 0.86 0.91 0.92 0.95 1.02 1.05 1.06 1.08 1.11 1.10 1.10 1.10 1.11 1.16 1.22 1.13 1.07 1.13 1.20 1.17
0.60 0.56 0.55 0.61 0.64 0.70 0.76 0.79 0.83 0.91 0.97 1.00 0.89 0.64 0.39 0.35 0.45 0.63 0.72 0.79 0.85 0.86 0.87 0.87 0.92 0.94 0.96 0.98 1.02 1.03 1.06 1.11 1.11 1.12 1.17 1.20 1.20 1.21 1.14 1.10 1.10 1.15 1.10
0.52 0.46 0.36 0.47 0.61 0.67 0.72 0.78 0.80 0.85 0.92 0.94 0.85 0.55 0.34 0.35 0.49 0.65 0.79 0.88 0.89 0.89 0.89 0.89 0.90 0.88 0.89 0.93 0.96 0.99 1.07 1.11 1.11 1.11 1.16 1.21 1.21 1.19 1.14 1.13 1.11 1.11 1.15
0.52 0.52 0.39 0.41 0.55 0.60 0.63 0.76 0.80 0.82 0.85 0.87 0.78 0.52 0.40 0.45 0.60 0.73 0.89 0.93 0.89 0.87 0.84 0.85 0.85 0.84 0.82 0.86 0.95 1.02 1.09 1.11 1.09 1.08 1.11 1.15 1.16 1.15 1.13 1.12 1.14 1.17 1.19
0.45 0.50 0.41 0.39 0.49 0.48 0.55 0.74 0.78 0.78 0.82 0.82 0.68 0.57 0.55 0.66 0.77 0.87 0.96 0.97 0.91 0.87 0.86 0.85 0.82 0.79 0.74 0.76 0.80 0.88 1.00 1.05 1.01 0.99 1.05 1.05 1.07 1.05 1.01 0.99 1.02 1.08 1.12
0.39 0.47 0.40 0.33 0.38 0.47 0.59 0.70 0.76 0.74 0.77 0.80 0.71 0.62 0.63 0.72 0.80 0.86 0.91 0.88 0.81 0.81 0.82 0.79 0.73 0.69 0.68 0.74 0.78 0.75 0.75 0.75 0.75 0.79 0.86 0.90 0.95 0.99 0.96 0.92 0.96 1.00 1.06
0.40 0.46 0.39 0.30 0.32 0.41 0.56 0.68 0.75 0.76 0.77 0.76 0.68 0.62 0.63 0.71 0.78 0.77 0.74 0.72 0.70 0.70 0.68 0.66 0.68 0.67 0.63 0.57 0.58 0.56 0.55 0.51 0.49 0.54 0.66 0.76 0.81 0.89 0.94 0.96 1.01 1.07 1.09
0.36 0.42 0.38 0.30 0.28 0.36 0.51 0.61 0.68 0.72 0.74 0.73 0.69 0.67 0.69 0.71 0.68 0.64 0.63 0.63 0.63 0.62 0.60 0.58 0.58 0.55 0.53 0.49 0.45 0.45 0.42 0.38 0.36 0.39 0.46 0.58 0.68 0.79 0.86 0.89 0.91 1.00 1.05